Temperature
17 17 17 17 17 17 17 17 17 17 17 17 17 17 17 17 17 17 17 17 17 17 17 17 17 17 17 17 17 17 17 17 17 17 17 16 16 16 16 16 16 16 16
17 17 17 17 17 17 17 17 16 17 17 16 17 17 17 17 17 17 17 17 17 17 17 17 17 17 17 17 17 17 17 17 17 17 17 17 16 16 16 16 16 16 16
17 17 17 17 17 16 16 16 16 16 16 16 16 16 16 16 17 17 17 17 17 17 17 17 17 17 17 17 17 17 17 17 17 17 17 17 17 16 16 16 16 16 16
17 16 16 16 16 16 16 16 16 16 16 16 16 16 16 16 16 16 16 16 16 16 17 17 17 16 16 16 16 16 17 17 17 17 17 17 17 17 16 16 16 16 16
16 16 16 16 16 16 16 15 15 15 15 15 15 16 16 16 16 16 16 16 16 16 16 16 16 16 16 16 16 16 16 16 16 17 17 17 17 17 16 16 16 16 16
16 16 16 16 15 15 15 15 15 15 15 15 15 15 15 16 16 16 16 16 16 16 16 16 16 16 16 16 16 16 16 16 16 16 16 17 17 17 16 16 16 16 16
16 15 15 15 15 15 15 15 14 14 14 14 15 15 15 15 15 15 15 15 16 16 16 16 16 16 16 16 16 16 16 16 16 16 16 16 16 16 16 16 16 16 16
15 15 15 15 14 14 14 14 14 14 14 14 14 14 14 15 15 15 15 15 15 15 15 16 16 16 16 16 16 16 16 16 16 16 16 16 16 16 16 16 16 16 16
15 15 15 14 14 14 14 14 13 13 13 13 13 13 13 14 14 14 14 14 15 15 15 15 15 15 16 16 16 16 16 16 16 16 16 16 16 16 16 16 16 16 16
15 15 14 14 14 14 13 13 13 13 13 13 13 13 13 13 13 13 14 14 14 14 15 15 15 15 15 16 16 16 16 16 16 16 16 16 16 16 16 16 16 16 16
15 14 14 14 14 13 13 13 13 13 13 13 12 12 12 12 12 12 13 13 14 14 14 14 15 15 15 15 15 16 16 16 16 16 15 16 16 16 16 16 16 16 16
14 14 14 14 13 13 13 13 13 12 12 12 12 12 12 12 12 12 12 12 13 13 14 14 14 14 14 15 15 15 15 15 15 15 15 15 15 15 15 15 16 16 16
14 14 14 13 13 13 13 12 12 12 12 12 12 12 11 11 11 11 11 11 12 12 13 13 14 14 14 14 14 15 15 15 15 15 15 15 15 15 15 15 15 15 15
14 13 13 13 13 13 12 12 12 12 12 12 11 11 11 11 11 11 11 11 11 11 12 13 13 13 13 13 14 14 14 15 15 15 15 15 15 15 15 15 15 15 15
14 13 13 13 13 13 12 12 12 12 12 11 11 11 11 11 11 11 11 11 10 10 11 12 12 13 13 13 13 13 14 14 14 14 15 15 15 15 15 15 15 15 15
14 13 13 13 13 13 12 12 12 12 12 11 11 11 11 11 11 11 11 11 10 10 10 11 11 12 12 12 12 13 13 13 14 14 14 14 14 14 15 15 15 15 15
14 14 13 13 13 13 12 12 12 12 12 11 11 11 11 11 11 11 10 10 10 10 10 11 11 11 11 12 12 12 12 13 13 13 14 14 14 14 14 14 15 15 15
14 14 13 13 13 13 12 12 12 12 12 11 11 11 11 11 11 10 10 10 10 10 10 10 11 11 11 11 11 12 12 12 13 13 13 13 14 14 14 14 14 14 15
14 14 14 13 13 13 13 12 12 12 12 11 11 11 11 11 11 10 10 10 10 10 10 10 10 10 11 11 11 11 11 12 12 12 13 13 13 13 14 14 14 14 14
14 14 14 14 13 13 13 12 12 12 12 11 11 11 11 11 11 10 10 10 10 10 10 9 10 10 10 10 10 11 11 11 12 12 12 12 13 13 13 13 13 14 14
14 14 14 14 13 13 13 12 12 12 12 12 11 11 11 11 10 10 10 10 10 9 9 9 9 10 10 10 10 10 10 11 11 11 12 12 12 12 13 13 13 13 14
15 14 14 14 13 13 13 13 12 12 12 12 11 11 11 11 10 10 10 10 9 9 9 9 9 9 9 10 9 9 9 10 10 11 11 11 12 12 12 13 13 13 13
15 14 14 14 14 13 13 13 12 12 12 12 11 11 11 11 10 10 10 10 9 9 9 9 9 9 9 9 9 9 9 9 9 10 10 11 11 12 12 12 12 13 13
15 15 14 14 14 13 13 13 12 12 12 12 12 11 11 11 10 10 10 10 10 9 9 9 9 9 9 9 9 9 9 9 9 10 9 10 11 11 12 12 12 12 12
15 15 14 14 14 13 13 13 12 12 12 12 12 11 11 11 11 10 10 10 10 10 9 9 9 9 9 9 8 8 8 8 9 9 9 9 10 11 11 12 12 12 12
15 14 14 14 14 13 13 13 12 12 12 12 12 11 11 11 10 10 10 9 9 10 9 9 9 9 9 9 8 8 8 8 8 8 9 9 10 10 10 11 12 12 12
Wind_Speed
2 2 1 1 1 2 2 1 1 1 2 2 2 3 4 4 5 6 7 8 11 15 18 19 19 19 19 19 19 19 19 18 18 18 17 17 17 16 15 15 14 14 14
3 2 1 1 1 1 1 1 1 1 0 1 2 2 4 4 5 6 7 8 10 14 17 19 19 19 20 20 20 20 20 20 19 19 19 18 18 18 17 16 15 15 15
5 3 2 2 1 2 3 3 2 1 0 1 2 3 3 4 4 5 7 8 9 11 15 19 19 19 20 20 21 21 21 21 21 21 21 20 20 19 19 18 17 17 16
6 4 3 2 2 3 3 2 1 1 1 1 2 2 3 3 4 5 5 7 8 9 12 16 18 20 21 20 20 21 22 23 23 23 23 22 21 21 21 20 19 18 18
6 5 3 3 4 3 2 1 2 1 1 2 3 2 3 3 4 5 5 6 8 9 10 13 16 19 19 20 20 21 22 24 25 25 24 24 23 23 23 22 21 20 20
6 6 4 4 4 3 3 2 2 2 1 1 2 3 3 3 3 3 4 5 6 7 9 10 11 14 17 19 21 22 23 24 25 25 25 25 25 25 25 24 23 22 22
6 6 4 3 3 3 2 2 2 2 2 2 2 3 3 3 3 2 2 2 3 5 6 7 9 10 12 16 20 21 23 24 24 25 26 26 26 26 26 26 26 25 24
5 5 4 3 3 3 3 2 2 1 1 2 1 1 3 4 3 3 2 2 3 3 3 4 6 8 10 11 13 19 22 23 24 25 25 27 28 28 28 28 27 27 26
4 4 5 4 3 3 2 2 2 2 1 1 1 2 1 2 3 3 3 3 4 3 3 4 4 5 7 8 10 13 17 20 22 22 24 28 29 29 29 29 29 28 28
2 3 4 4 3 2 2 1 2 1 2 0 1 0 1 2 1 3 3 3 4 4 4 4 5 5 4 5 7 10 12 14 17 19 22 24 26 29 31 31 30 29 29
3 2 3 4 3 2 2 2 2 2 2 2 1 0 0 0 1 2 4 4 4 3 4 5 4 5 5 4 5 7 10 11 13 14 17 21 23 26 29 30 30 30 30
2 2 3 3 2 2 2 2 2 2 2 2 2 2 2 1 2 2 3 3 4 4 4 4 3 4 5 5 5 7 8 8 10 11 12 15 18 21 24 27 28 30 30
0 0 1 1 1 2 2 2 2 2 2 2 3 2 3 3 2 2 3 3 3 3 3 3 3 4 4 5 6 7 8 8 8 10 11 11 13 16 19 23 26 28 30
2 2 2 2 2 2 2 2 2 2 2 3 3 3 3 3 3 3 3 2 3 3 2 4 3 4 4 5 6 7 7 9 8 8 9 10 10 12 15 18 22 25 28
2 2 2 2 2 2 2 2 2 3 2 3 3 4 3 3 3 4 4 4 3 4 4 3 3 3 4 6 8 7 7 9 10 10 10 10 10 11 13 14 17 20 23
3 3 3 3 3 2 2 2 2 3 3 4 3 4 4 3 3 3 4 4 5 5 5 3 3 4 5 8 9 8 9 11 11 11 12 11 11 12 13 13 14 17 20
4 4 4 3 3 3 3 3 4 4 4 5 4 4 5 4 4 3 3 4 5 5 7 6 4 4 4 7 8 8 9 8 9 12 12 13 13 13 13 13 13 15 17
4 4 4 4 4 4 4 4 5 5 5 6 6 5 6 5 5 4 4 5 5 6 6 8 5 4 5 6 6 7 7 7 8 11 13 13 13 14 13 13 14 15 16
5 5 5 5 5 5 5 5 6 6 6 7 7 7 7 6 7 5 5 6 5 5 6 6 6 4 4 4 5 5 6 5 7 9 11 12 13 14 14 14 15 15 16
6 6 6 6 6 6 6 6 6 7 7 7 7 7 8 7 8 8 6 7 6 6 6 6 7 6 5 5 4 5 6 4 5 6 7 9 10 12 12 14 15 16 17
7 6 6 6 6 6 7 7 7 7 8 8 8 8 9 10 12 9 8 7 7 6 6 6 7 6 6 5 5 4 5 6 5 4 4 5 5 6 8 11 13 16 17
6 6 7 7 7 7 9 11 8 8 8 9 9 9 9 10 12 12 13 12 10 9 9 7 7 8 9 7 6 6 5 5 5 3 3 4 4 6 7 9 12 14 16
7 7 8 8 9 10 13 13 12 9 9 10 10 10 9 9 9 8 10 11 11 13 14 11 11 12 11 8 7 7 7 7 7 4 3 6 5 6 7 10 13 15 16
7 7 8 9 9 11 13 14 13 9 10 11 11 11 11 11 10 9 9 9 10 10 11 10 11 12 12 10 9 9 8 8 7 6 5 6 6 6 6 8 12 14 15
8 8 7 9 9 11 14 14 12 7 9 11 11 11 11 12 13 12 9 10 11 10 11 13 14 14 15 14 10 7 7 6 7 6 6 5 5 6 6 7 8 12 14
8 8 9 9 10 12 14 15 12 7 9 10 9 10 13 14 14 12 10 10 11 12 9 8 9 10 11 12 12 11 10 9 8 6 6 6 5 4 4 4 4 5 7
Wind_Direction
176 177 178 183 176 168 172 161 171 229 264 269 258 248 248 240 235 238 252 261 240 222 218 213 210 208 205 204 204 203 202 200 197 195 193 191 188 186 187 186 185 182 181
166 153 134 116 122 147 140 120 129 134 53 305 296 288 274 259 245 239 248 260 255 236 227 223 220 219 213 211 210 210 208 207 203 200 199 198 195 192 192 193 192 189 187
147 136 123 105 101 103 99 91 79 72 356 313 306 306 291 273 259 247 249 254 259 250 238 229 225 224 222 219 215 214 213 211 208 205 203 203 202 199 198 198 197 196 195
141 133 120 107 100 90 93 93 71 59 1 333 309 301 296 289 281 269 259 254 255 252 246 237 230 231 229 225 222 221 219 217 213 209 207 207 206 205 203 202 203 201 200
137 128 115 106 101 87 78 76 72 78 15 332 303 291 293 289 287 280 267 260 256 254 251 246 240 239 236 233 229 228 226 223 219 215 212 211 210 209 208 206 206 206 205
134 123 111 105 104 89 69 65 72 59 38 327 316 312 303 298 291 279 277 276 269 261 253 250 246 245 244 241 236 233 232 228 225 221 217 216 215 213 212 210 209 208 208
136 130 125 115 111 103 96 90 90 60 25 1 7 336 327 326 315 300 297 291 296 288 272 260 251 248 251 250 242 237 235 233 230 227 224 221 219 217 215 214 212 211 210
144 145 140 134 126 113 98 88 95 93 23 28 70 34 349 342 343 357 347 346 333 331 321 294 270 256 252 251 248 240 238 235 233 231 229 227 225 221 218 217 216 214 213
151 152 152 144 138 132 138 132 127 131 121 16 52 126 123 294 315 327 345 353 346 337 329 319 306 285 266 254 252 250 244 239 235 234 232 230 228 224 221 220 218 217 216
115 151 153 153 150 146 152 163 139 137 138 145 355 12 185 187 244 315 322 336 343 340 333 323 316 309 296 273 260 255 252 247 242 239 237 233 231 228 224 222 221 221 219
63 112 146 155 156 158 169 170 149 146 154 171 192 202 134 93 209 232 291 318 328 319 318 312 311 315 321 307 282 270 261 254 250 246 243 238 235 233 229 226 226 226 224
35 67 123 142 158 168 182 187 178 173 181 186 194 193 192 203 212 215 254 287 302 302 309 304 302 308 314 315 303 298 287 269 257 253 250 243 237 235 234 231 230 230 229
179 182 127 146 168 197 201 189 187 200 197 202 212 217 220 225 215 207 231 265 283 295 304 301 292 299 309 318 311 311 303 293 269 256 250 247 242 238 236 234 232 233 233
203 201 187 200 214 219 216 201 212 226 213 221 230 225 232 239 224 215 217 231 277 290 285 282 300 291 307 315 311 310 302 298 281 263 252 248 247 243 240 236 234 234 234
207 203 206 214 231 236 229 210 226 239 231 236 239 238 238 246 236 231 226 218 232 271 284 272 277 298 309 305 302 302 297 293 282 268 255 248 245 245 242 241 238 236 234
208 208 223 232 244 243 231 219 234 239 236 246 240 240 245 248 248 239 231 226 222 236 261 265 259 279 296 299 300 298 291 291 283 271 259 251 248 246 245 243 242 241 239
210 217 227 233 242 246 238 229 241 242 243 253 251 244 253 252 252 249 237 230 226 222 250 269 262 273 278 283 294 297 292 284 280 274 265 255 250 248 248 247 247 246 244
221 223 227 234 244 246 242 239 252 251 246 255 257 251 257 255 251 251 244 242 237 227 237 266 273 272 264 273 281 288 288 284 277 277 270 259 252 250 250 251 252 250 248
226 227 225 234 243 248 249 248 249 255 253 254 255 253 258 253 256 252 246 247 247 245 233 251 270 267 269 272 281 284 284 283 282 278 271 261 254 252 251 252 253 252 250
224 230 231 237 243 249 253 255 253 254 257 257 256 253 255 250 253 254 251 248 247 249 245 250 265 270 269 270 265 273 282 276 281 283 270 262 257 256 255 253 253 252 250
228 231 236 244 246 248 250 250 250 253 253 260 262 257 256 255 252 248 249 247 242 246 251 254 263 267 267 264 260 258 271 282 279 262 269 266 260 259 258 255 254 252 250
232 230 236 243 248 250 250 250 247 251 254 257 264 266 263 263 262 259 254 249 238 241 248 251 257 261 265 261 258 256 262 274 280 251 247 270 259 261 259 254 252 251 250
228 233 239 240 247 253 255 258 255 249 251 254 256 261 266 262 255 260 264 264 256 245 238 243 254 258 261 255 250 256 252 251 257 259 255 273 261 262 262 258 254 253 252
225 234 240 240 246 257 256 256 257 253 253 254 252 251 255 262 259 253 260 264 264 259 249 245 247 253 255 255 245 250 258 261 263 256 232 257 262 260 265 259 253 251 251
229 232 238 239 245 258 258 257 254 251 254 258 255 249 246 253 255 248 248 258 267 269 260 248 244 250 252 251 243 242 243 245 260 259 219 233 256 259 263 263 254 248 248
235 238 244 244 244 254 258 255 247 242 252 259 260 253 243 243 250 246 240 246 259 267 270 272 264 263 261 258 244 233 235 240 250 257 224 215 239 240 264 254 255 253 249
Height
1557 1558 1559 1559 1560 1561 1561 1562 1563 1563 1564 1565 1566 1566 1567 1568 1568 1569 1569 1570 1571 1572 1573 1574 1576 1577 1578 1580 1582 1584 1586 1587 1589 1591 1593 1594 1596 1598 1599 1601 1603 1604 1606
1556 1557 1557 1558 1559 1559 1560 1560 1561 1562 1562 1563 1564 1564 1564 1565 1566 1566 1567 1568 1569 1570 1571 1572 1573 1575 1576 1578 1580 1582 1583 1585 1587 1589 1591 1593 1595 1597 1598 1600 1602 1604 1605
1556 1556 1556 1557 1557 1558 1558 1559 1559 1560 1560 1561 1561 1562 1562 1563 1563 1563 1564 1565 1566 1567 1567 1568 1570 1571 1573 1575 1577 1579 1581 1583 1585 1587 1589 1591 1593 1595 1597 1599 1601 1603 1604
1555 1555 1556 1556 1557 1557 1557 1557 1558 1558 1558 1558 1559 1559 1560 1560 1560 1561 1561 1562 1562 1563 1564 1565 1566 1568 1569 1571 1573 1575 1577 1579 1582 1584 1586 1589 1591 1593 1595 1597 1599 1601 1603
1554 1555 1556 1556 1556 1556 1556 1556 1556 1556 1556 1556 1556 1557 1557 1557 1557 1558 1558 1558 1559 1560 1560 1562 1563 1564 1566 1567 1569 1571 1573 1575 1578 1580 1583 1585 1588 1590 1592 1595 1597 1599 1601
1554 1554 1555 1555 1555 1555 1555 1555 1555 1555 1555 1554 1554 1554 1554 1554 1554 1554 1554 1555 1555 1556 1557 1558 1559 1560 1562 1563 1565 1566 1568 1570 1573 1576 1579 1581 1584 1586 1589 1591 1594 1596 1598
1553 1554 1554 1554 1554 1554 1554 1554 1554 1553 1553 1553 1552 1552 1551 1551 1551 1551 1551 1551 1552 1552 1553 1554 1555 1556 1558 1559 1560 1562 1564 1566 1568 1571 1574 1576 1579 1582 1585 1587 1590 1593 1595
1552 1553 1553 1553 1553 1553 1553 1553 1553 1552 1552 1551 1551 1550 1549 1550 1549 1549 1549 1549 1549 1549 1550 1551 1551 1552 1554 1555 1556 1558 1559 1562 1563 1566 1568 1571 1574 1577 1580 1583 1585 1588 1591
1551 1552 1552 1552 1552 1552 1552 1551 1551 1551 1550 1550 1550 1550 1549 1548 1548 1548 1547 1547 1547 1547 1548 1548 1549 1549 1550 1551 1552 1554 1555 1557 1559 1561 1563 1565 1568 1571 1574 1577 1580 1583 1586
1550 1550 1550 1551 1551 1551 1550 1550 1549 1549 1549 1549 1548 1548 1548 1547 1547 1546 1546 1545 1545 1545 1546 1546 1546 1546 1547 1547 1548 1549 1551 1552 1554 1555 1557 1559 1562 1565 1568 1571 1574 1577 1580
1548 1548 1549 1549 1549 1549 1549 1548 1548 1547 1547 1547 1546 1546 1546 1545 1545 1544 1543 1543 1543 1543 1543 1543 1543 1544 1544 1544 1545 1546 1547 1548 1549 1550 1552 1554 1556 1558 1561 1564 1568 1571 1574
1546 1546 1547 1547 1547 1547 1547 1546 1546 1545 1545 1544 1544 1544 1543 1543 1543 1542 1541 1540 1539 1540 1540 1540 1540 1541 1541 1541 1542 1542 1543 1544 1545 1546 1547 1549 1550 1552 1554 1557 1560 1564 1567
1544 1545 1545 1545 1545 1545 1544 1544 1544 1543 1543 1542 1542 1541 1541 1541 1540 1540 1539 1538 1537 1536 1536 1537 1537 1537 1537 1538 1538 1538 1539 1540 1541 1542 1543 1544 1545 1546 1548 1550 1553 1556 1559
1543 1543 1543 1543 1542 1542 1542 1542 1541 1541 1540 1540 1539 1539 1538 1538 1537 1537 1536 1536 1534 1533 1533 1533 1534 1534 1534 1534 1534 1534 1535 1536 1537 1538 1538 1539 1540 1541 1542 1544 1546 1549 1552
1540 1541 1541 1540 1540 1540 1540 1539 1539 1538 1538 1537 1537 1536 1535 1535 1534 1534 1533 1533 1533 1530 1529 1529 1530 1530 1530 1530 1530 1530 1530 1531 1532 1533 1534 1534 1535 1536 1537 1538 1540 1542 1544
1538 1538 1538 1538 1538 1538 1537 1537 1536 1536 1535 1534 1534 1533 1532 1532 1531 1530 1530 1529 1529 1528 1526 1525 1525 1526 1526 1526 1526 1525 1526 1526 1526 1527 1528 1529 1530 1531 1532 1532 1534 1535 1537
1536 1536 1536 1536 1536 1536 1535 1534 1534 1533 1532 1531 1531 1530 1529 1528 1527 1527 1526 1525 1525 1524 1522 1520 1521 1521 1520 1520 1520 1520 1520 1520 1521 1522 1523 1523 1524 1525 1526 1527 1527 1528 1530
1535 1535 1534 1534 1534 1533 1533 1532 1531 1530 1529 1528 1527 1526 1525 1524 1523 1523 1522 1521 1520 1519 1518 1516 1515 1515 1515 1515 1515 1514 1515 1515 1515 1516 1516 1517 1518 1519 1519 1520 1521 1522 1523
1533 1533 1532 1532 1532 1531 1530 1529 1528 1527 1526 1525 1524 1522 1522 1520 1519 1518 1517 1517 1516 1515 1514 1512 1510 1510 1510 1510 1509 1509 1508 1508 1509 1509 1510 1510 1511 1512 1512 1513 1514 1515 1516
1530 1530 1530 1529 1529 1528 1527 1526 1525 1523 1522 1521 1520 1518 1517 1516 1515 1514 1513 1512 1511 1510 1509 1507 1506 1505 1504 1504 1504 1503 1502 1503 1502 1503 1503 1504 1504 1505 1506 1506 1507 1508 1508
1528 1528 1527 1526 1526 1524 1523 1522 1521 1519 1518 1517 1515 1514 1513 1511 1510 1509 1508 1507 1506 1505 1504 1502 1501 1500 1499 1499 1499 1498 1497 1496 1496 1496 1496 1497 1498 1498 1499 1499 1500 1500 1501
1525 1524 1524 1523 1522 1521 1520 1518 1517 1515 1514 1512 1511 1509 1508 1506 1505 1504 1502 1501 1500 1499 1498 1497 1495 1494 1493 1493 1493 1492 1492 1491 1490 1491 1490 1490 1491 1491 1492 1492 1493 1493 1494
1521 1521 1520 1519 1518 1517 1516 1514 1512 1511 1509 1507 1506 1504 1502 1501 1500 1498 1497 1496 1495 1494 1493 1491 1489 1488 1488 1488 1487 1486 1486 1485 1484 1485 1485 1483 1484 1484 1485 1485 1485 1486 1486
1517 1516 1516 1515 1513 1512 1511 1510 1508 1506 1504 1502 1501 1499 1497 1495 1494 1492 1491 1489 1488 1488 1487 1485 1483 1482 1482 1482 1481 1481 1480 1479 1478 1478 1479 1477 1477 1478 1478 1478 1478 1479 1479
1512 1512 1511 1510 1508 1507 1506 1505 1503 1501 1499 1497 1495 1493 1491 1489 1488 1487 1485 1483 1482 1481 1481 1479 1477 1476 1475 1475 1475 1474 1473 1472 1471 1471 1472 1471 1470 1471 1471 1471 1471 1472 1472
1507 1507 1505 1504 1503 1501 1501 1499 1497 1495 1492 1491 1489 1487 1485 1483 1482 1481 1479 1477 1475 1474 1474 1472 1471 1470 1469 1468 1468 1467 1466 1465 1464 1464 1465 1465 1465 1465 1464 1464 1465 1465 1466